Wind_Speed
76 79 82 83 83 90 75 61 50 41 33 37 35 32 30 28 22 23 33 33 39 45 41 37 34 34 33 34 39 34 31 29 25 22 26 22 15 16 18 29 37 43 51 68
79 80 79 74 79 67 59 45 36 36 32 31 35 36 32 26 26 25 32 37 41 44 42 38 36 37 35 33 33 36 31 21 24 29 23 20 20 15 19 28 36 42 50 62
77 79 80 63 60 54 44 38 34 33 36 33 37 37 33 29 30 30 33 38 42 43 41 38 38 39 40 38 36 34 36 26 19 26 18 15 19 20 21 22 34 41 53 69
73 75 56 50 48 46 36 37 34 35 36 36 36 37 35 32 36 36 38 40 43 44 43 41 41 42 42 44 41 41 37 37 25 26 28 21 22 24 26 32 32 41 49 65
59 51 43 43 45 41 33 39 35 36 37 40 38 37 37 40 40 40 41 44 49 49 44 44 45 46 46 47 48 45 45 36 34 25 34 33 31 32 31 30 37 41 52 63
47 42 39 43 43 38 32 39 35 34 35 41 37 38 40 41 41 46 48 51 54 51 48 49 49 49 52 52 53 51 46 40 37 33 28 34 41 42 36 35 44 47 53 64
40 34 32 40 36 30 28 34 33 31 31 39 38 40 40 41 44 49 54 57 55 53 53 55 55 55 57 57 55 52 45 40 40 39 33 30 30 39 43 48 37 51 61 70
29 25 28 28 28 23 21 26 28 27 31 35 36 37 40 44 49 54 57 57 56 58 61 61 62 62 61 57 53 48 45 42 42 43 39 34 33 35 35 42 43 49 62 68
23 20 20 15 12 15 16 20 23 26 29 32 34 39 45 49 53 56 55 58 62 65 66 68 68 64 57 51 50 47 45 44 44 46 44 41 38 37 39 40 44 51 62 70
17 16 14 14 15 17 17 19 22 24 28 34 39 44 50 53 53 55 59 63 66 69 71 69 64 57 51 49 48 47 46 46 47 49 51 49 47 44 43 46 48 59 70 76
17 12 14 15 18 16 18 21 25 30 34 39 45 50 52 52 56 61 63 66 70 72 70 63 58 53 48 46 47 47 48 48 48 51 54 55 54 52 50 52 56 66 76 82
12 14 16 15 16 20 24 27 32 36 41 45 47 48 51 56 59 63 68 70 71 68 63 59 52 47 43 43 44 46 48 50 51 53 56 59 60 59 58 58 59 66 80 89
15 15 15 14 20 26 32 37 40 43 44 44 46 50 53 58 64 69 70 68 67 61 58 50 44 40 38 38 41 44 48 51 53 54 56 61 65 67 66 64 66 69 77 91
19 20 17 18 19 23 26 30 34 38 42 45 48 53 59 64 69 67 66 65 60 55 48 42 38 37 36 36 39 42 46 51 54 56 57 60 63 67 70 69 71 73 76 84
22 20 20 22 24 26 28 33 38 41 45 49 54 58 63 65 63 63 61 59 54 47 41 38 37 35 35 36 38 41 46 50 54 57 59 60 61 63 67 71 74 78 79 86
19 23 24 25 26 29 35 39 41 45 50 54 57 63 62 61 60 56 56 53 46 41 39 37 36 35 35 35 37 39 43 46 51 54 58 61 63 64 65 67 70 74 80 86
18 21 22 24 31 35 38 41 46 49 54 58 62 62 60 58 54 53 51 46 40 37 37 36 36 36 36 36 37 39 41 45 48 51 54 57 59 63 65 68 71 75 80 83
14 19 25 30 34 38 41 45 49 54 58 62 62 60 58 54 52 50 46 41 37 35 35 35 36 36 36 37 38 40 41 43 45 47 49 51 54 57 62 65 68 70 73 77
20 25 30 34 38 41 45 50 54 56 60 61 60 58 55 52 51 47 42 38 36 35 35 35 36 37 38 39 40 41 43 45 47 49 51 53 55 55 55 56 58 61 63 67
24 29 35 38 41 45 49 52 55 60 59 59 58 57 56 53 49 44 40 37 34 34 35 35 36 37 39 40 41 42 44 46 48 49 50 51 51 52 53 54 56 59 61 64
30 35 38 42 45 48 52 56 60 59 58 57 57 56 54 51 45 41 39 37 36 35 35 36 37 38 39 40 42 44 46 47 48 49 50 50 50 51 53 55 58 60 62 65
35 38 42 45 48 52 54 57 57 56 55 54 53 53 51 47 43 40 38 37 37 37 37 37 38 39 40 41 42 44 45 46 46 47 48 50 53 55 57 60 62 65 68 71
38 41 45 48 51 54 55 55 55 56 54 52 51 50 48 44 41 39 38 37 37 38 39 41 41 41 42 42 43 43 44 45 47 49 51 54 56 58 60 62 65 68 70 72
41 45 49 50 51 51 53 55 56 55 55 52 50 49 46 43 41 39 39 38 39 40 42 43 43 43 43 43 44 45 46 48 50 52 54 56 57 59 62 65 68 70 71 72
47 49 49 50 51 52 53 55 55 56 56 54 51 48 46 43 41 40 39 39 40 41 42 43 43 43 44 45 46 48 49 52 53 55 55 57 60 63 66 67 69 69 69 68
50 51 51 51 51 53 56 56 57 57 56 53 51 47 44 43 42 41 41 41 42 42 43 43 44 44 45 47 49 50 52 54 55 56 59 62 64 65 67 67 67 67 66 65
50 51 51 51 53 56 58 59 58 56 54 51 47 46 45 43 42 42 41 41 41 42 43 44 45 46 47 49 50 52 53 55 57 60 62 63 64 65 65 66 66 64 62 60
Wind_Direction
283 284 285 287 291 295 290 282 280 271 275 268 260 246 229 234 245 260 271 277 283 288 298 304 312 315 320 327 324 309 297 320 302 288 296 270 263 254 228 204 199 196 199 197
282 286 288 292 295 283 280 272 269 266 260 262 249 236 230 237 246 261 272 276 282 287 300 302 309 315 318 323 325 315 300 312 292 292 286 268 250 216 201 200 193 189 190 194
288 289 290 297 277 277 268 267 266 257 256 255 244 234 238 246 248 257 270 278 284 293 300 302 309 314 318 321 322 323 298 289 294 278 269 259 226 181 179 188 187 191 196 193
290 288 288 279 273 266 265 266 258 249 249 248 242 236 244 251 260 265 273 281 288 295 301 303 308 312 314 317 317 317 312 284 276 260 249 247 218 198 199 187 196 197 202 196
286 279 276 273 266 263 263 263 255 244 247 242 241 240 244 252 264 277 282 285 289 295 299 302 306 307 309 311 311 309 306 281 273 270 246 245 238 212 217 220 208 211 205 199
272 270 265 264 263 259 263 257 255 243 248 238 242 240 252 263 271 280 285 288 291 296 299 301 303 304 306 306 304 302 297 283 261 263 260 244 246 232 231 233 232 224 211 201
270 268 261 255 259 262 258 253 253 244 250 238 246 250 258 269 276 283 285 287 292 296 300 301 302 303 303 301 296 292 283 272 259 256 253 245 237 242 241 233 244 227 213 204
265 259 253 258 259 258 251 249 249 245 239 240 252 259 270 278 281 283 287 291 295 298 299 300 299 299 298 293 286 279 273 264 252 248 254 255 245 235 237 237 232 228 220 208
247 249 255 258 253 241 230 228 226 233 241 250 264 271 277 283 285 289 291 294 297 298 299 300 299 296 290 283 277 271 265 259 251 244 242 247 248 243 238 233 229 224 219 209
242 247 226 198 213 216 224 235 243 256 263 267 270 275 281 286 291 291 294 296 298 298 299 299 295 290 283 276 269 263 258 254 250 245 240 239 243 243 238 235 229 222 217 211
225 206 206 219 229 231 242 244 255 264 270 273 277 280 288 289 293 295 298 299 298 298 299 298 294 287 280 270 263 257 253 250 248 245 243 240 239 242 240 236 230 222 217 216
186 208 218 226 236 249 256 261 265 274 279 280 284 286 291 295 297 299 299 298 299 301 300 297 291 284 275 266 258 253 249 248 247 245 243 243 242 241 241 239 236 230 222 219
191 204 226 242 247 260 269 273 276 279 282 284 288 292 295 299 300 298 299 301 302 300 298 293 286 279 271 264 258 252 247 246 246 246 246 245 245 243 242 242 241 236 231 227
204 225 243 262 274 277 277 281 281 283 286 290 295 298 300 300 299 300 301 302 300 299 294 288 282 275 268 261 255 252 250 249 248 248 248 247 247 248 247 246 245 243 239 234
225 247 265 272 276 279 283 285 287 292 296 298 300 301 301 300 301 301 301 301 299 294 290 285 280 274 268 262 256 252 250 250 251 252 253 253 253 253 252 251 249 246 246 241
244 250 266 269 278 284 288 292 296 299 299 301 300 301 300 302 303 302 301 300 295 290 287 283 279 274 270 267 262 257 255 254 254 254 255 256 256 257 257 256 255 253 249 247
242 254 269 280 285 289 293 297 299 300 301 301 302 302 303 305 304 303 300 297 291 287 285 282 277 273 269 267 265 262 259 258 258 258 259 259 260 260 260 259 258 256 254 252
263 276 280 286 291 295 298 300 301 301 303 303 303 304 307 306 305 302 299 292 288 286 285 283 280 276 272 269 268 267 267 267 266 265 265 264 263 261 260 260 261 262 262 261
283 289 292 293 295 298 301 302 303 305 305 305 305 308 308 308 306 302 296 289 287 287 284 281 279 276 275 273 272 271 271 271 271 270 269 269 271 272 272 270 268 266 263 261
292 293 292 295 298 301 303 304 305 307 308 306 309 309 308 308 305 300 292 287 286 285 284 283 281 279 278 277 276 276 276 275 276 276 278 278 278 278 277 276 276 274 271 269
292 293 296 298 301 303 303 303 306 308 307 308 308 307 308 306 302 296 290 288 288 286 284 283 283 283 282 280 280 279 279 279 282 282 282 283 283 283 283 282 282 281 281 281
294 296 298 301 303 303 305 305 306 306 307 307 307 308 306 304 300 296 291 289 289 288 287 287 286 284 283 282 281 282 282 283 285 286 288 288 288 287 287 287 287 287 285 284
295 300 303 304 305 304 304 305 306 307 308 309 310 309 306 303 300 294 291 288 288 288 286 287 287 286 286 286 286 287 289 290 291 290 290 289 289 289 289 289 288 288 288 288
303 305 305 305 304 305 307 307 309 311 312 313 313 310 307 304 301 296 292 289 287 287 287 287 288 287 287 288 290 292 293 292 292 291 291 291 292 292 292 293 294 294 293 293
305 305 305 305 306 308 308 309 311 312 314 315 312 310 307 304 301 297 295 291 288 287 288 289 289 289 289 290 292 292 292 293 293 294 294 296 297 297 296 296 296 296 296 297
303 304 305 306 309 309 309 312 313 313 314 312 310 309 307 304 302 300 297 295 292 291 290 291 292 293 293 293 293 293 294 296 297 298 298 299 299 298 298 299 300 300 300 300
304 305 307 309 308 310 311 312 313 313 312 311 310 308 307 304 302 299 297 296 294 293 292 293 293 293 293 294 295 297 298 299 299 299 300 301 301 302 303 303 303 303 302 302
Height
10366 10363 10360 10359 10358 10343 10336 10335 10339 10338 10342 10338 10340 10341 10344 10347 10347 10350 10352 10351 10349 10345 10344 10340 10336 10331 10326 10320 10313 10309 10306 10301 10295 10292 10289 10283 10284 10279 10281 10284 10285 10291 10305 10316
10347 10342 10338 10344 10337 10320 10319 10322 10324 10326 10327 10331 10333 10334 10337 10339 10339 10341 10342 10342 10339 10336 10335 10332 10328 10323 10318 10313 10310 10304 10302 10300 10293 10288 10283 10282 10280 10278 10279 10280 10282 10288 10294 10308
10332 10322 10318 10331 10309 10309 10312 10311 10313 10314 10316 10322 10325 10328 10330 10331 10331 10331 10332 10331 10329 10327 10324 10322 10320 10315 10309 10305 10302 10299 10295 10295 10292 10286 10283 10280 10279 10279 10278 10279 10278 10282 10288 10301
10314 10305 10307 10303 10298 10298 10303 10301 10303 10305 10309 10315 10318 10321 10322 10324 10322 10322 10322 10322 10320 10317 10314 10312 10309 10305 10301 10296 10293 10291 10289 10287 10287 10283 10280 10279 10279 10278 10276 10276 10278 10283 10285 10295
10292 10286 10291 10290 10286 10289 10291 10290 10293 10297 10302 10307 10310 10312 10314 10313 10314 10314 10313 10312 10310 10306 10303 10300 10297 10293 10290 10287 10283 10282 10279 10278 10278 10277 10275 10273 10274 10272 10272 10274 10277 10279 10282 10289
10271 10274 10278 10273 10274 10278 10281 10279 10284 10290 10295 10299 10302 10304 10305 10306 10306 10305 10304 10302 10298 10295 10291 10287 10284 10281 10277 10275 10272 10270 10270 10267 10268 10268 10267 10264 10263 10266 10268 10271 10270 10272 10275 10283
10258 10264 10266 10260 10266 10271 10272 10272 10277 10282 10288 10292 10294 10296 10297 10297 10297 10296 10293 10289 10284 10280 10276 10271 10268 10265 10262 10259 10257 10255 10254 10254 10253 10255 10257 10257 10255 10256 10258 10259 10262 10264 10266 10273
10252 10254 10255 10257 10258 10261 10264 10266 10271 10277 10281 10285 10287 10288 10289 10289 10287 10285 10280 10274 10269 10264 10260 10255 10251 10247 10245 10242 10239 10238 10238 10239 10240 10241 10243 10244 10244 10246 10247 10251 10253 10256 10260 10265
10243 10245 10248 10251 10253 10255 10259 10263 10267 10272 10276 10278 10279 10279 10278 10277 10274 10270 10264 10259 10253 10247 10242 10237 10231 10227 10225 10222 10220 10221 10221 10222 10224 10227 10230 10232 10232 10234 10236 10238 10240 10245 10250 10257
10236 10241 10244 10245 10249 10253 10258 10261 10264 10267 10269 10270 10270 10269 10266 10263 10259 10253 10248 10243 10236 10229 10223 10217 10210 10206 10204 10203 10202 10203 10205 10206 10208 10211 10215 10218 10220 10222 10223 10225 10227 10232 10236 10241
10232 10235 10238 10243 10247 10251 10255 10257 10259 10261 10262 10262 10260 10257 10253 10248 10243 10237 10231 10224 10217 10210 10202 10195 10190 10185 10184 10184 10184 10186 10188 10191 10193 10195 10198 10202 10205 10208 10209 10211 10213 10217 10222 10226
10228 10233 10236 10240 10246 10249 10251 10253 10254 10254 10253 10251 10249 10245 10239 10233 10227 10219 10212 10205 10197 10189 10182 10175 10170 10167 10166 10166 10168 10170 10173 10176 10178 10180 10182 10186 10189 10192 10193 10195 10198 10201 10205 10208
10226 10232 10235 10238 10242 10244 10245 10245 10245 10243 10241 10239 10236 10231 10225 10218 10210 10202 10194 10186 10178 10171 10164 10159 10155 10153 10152 10152 10153 10156 10159 10161 10164 10166 10168 10169 10171 10173 10175 10179 10181 10183 10186 10191
10224 10229 10233 10235 10236 10237 10237 10236 10234 10233 10230 10227 10222 10216 10210 10202 10193 10184 10175 10168 10161 10154 10149 10145 10143 10141 10140 10140 10140 10142 10144 10146 10148 10150 10152 10154 10154 10155 10158 10163 10165 10167 10168 10169
10221 10225 10228 10229 10229 10229 10229 10228 10225 10221 10216 10212 10207 10201 10194 10184 10176 10168 10159 10151 10145 10139 10136 10133 10130 10130 10129 10129 10129 10129 10130 10131 10133 10134 10136 10137 10139 10139 10140 10141 10142 10143 10145 10147
10217 10220 10221 10222 10222 10222 10221 10217 10213 10208 10202 10197 10191 10184 10176 10169 10161 10153 10144 10137 10131 10127 10124 10121 10119 10118 10117 10117 10117 10117 10118 10118 10119 10119 10119 10119 10119 10120 10120 10121 10120 10120 10121 10121
10212 10214 10215 10215 10215 10213 10209 10205 10200 10195 10189 10182 10174 10166 10160 10153 10145 10138 10130 10124 10120 10116 10112 10110 10108 10106 10105 10104 10104 10104 10104 10104 10103 10103 10103 10102 10102 10101 10100 10099 10098 10095 10093 10093
10207 10208 10208 10208 10205 10201 10197 10193 10188 10181 10174 10166 10157 10150 10144 10137 10131 10123 10117 10111 10108 10105 10102 10099 10096 10094 10093 10092 10091 10090 10090 10089 10088 10087 10086 10085 10084 10082 10079 10079 10078 10078 10077 10075
10201 10201 10199 10198 10194 10191 10186 10180 10174 10167 10159 10149 10141 10134 10128 10123 10116 10109 10104 10099 10096 10093 10090 10088 10085 10083 10081 10079 10077 10076 10075 10073 10072 10070 10068 10066 10065 10063 10062 10059 10057 10055 10053 10050
10194 10193 10191 10188 10184 10179 10173 10167 10160 10152 10143 10134 10127 10119 10113 10107 10102 10096 10091 10087 10085 10082 10079 10076 10074 10071 10069 10067 10065 10063 10061 10058 10055 10053 10051 10048 10046 10043 10041 10038 10034 10030 10026 10023
10186 10184 10181 10177 10172 10166 10160 10153 10145 10136 10129 10122 10114 10107 10100 10093 10087 10082 10078 10075 10072 10069 10067 10065 10062 10060 10057 10055 10052 10049 10046 10044 10041 10039 10036 10033 10030 10026 10022 10017 10012 10007 10001 9996
10177 10174 10170 10165 10159 10153 10146 10138 10131 10124 10117 10110 10102 10094 10086 10079 10074 10069 10065 10062 10059 10056 10054 10052 10049 10047 10045 10042 10039 10036 10034 10030 10027 10023 10020 10015 10011 10006 10001 9996 9990 9984 9978 9972
10166 10162 10157 10152 10146 10138 10131 10124 10117 10109 10103 10096 10088 10080 10072 10066 10061 10056 10053 10050 10047 10044 10041 10038 10035 10033 10031 10028 10025 10022 10018 10015 10011 10008 10003 9998 9993 9987 9982 9976 9970 9961 9953 9945
10155 10150 10145 10139 10132 10125 10117 10109 10102 10094 10086 10080 10073 10066 10059 10054 10049 10044 10040 10037 10034 10030 10027 10024 10022 10019 10016 10013 10010 10006 10003 9999 9994 9989 9984 9979 9974 9968 9961 9953 9945 9936 9928 9920
10143 10138 10132 10125 10118 10111 10104 10096 10089 10081 10073 10066 10059 10052 10046 10041 10036 10032 10028 10024 10020 10017 10014 10011 10007 10005 10002 9998 9994 9990 9986 9981 9976 9971 9965 9959 9952 9944 9937 9929 9921 9912 9902 9894
10131 10125 10118 10111 10105 10098 10090 10083 10076 10068 10060 10053 10046 10039 10034 10028 10023 10019 10015 10011 10007 10003 10000 9996 9993 9989 9986 9981 9977 9972 9968 9963 9957 9951 9945 9938 9930 9922 9913 9904 9895 9886 9878 9870
10117 10110 10104 10098 10091 10084 10077 10069 10062 10054 10047 10040 10033 10027 10021 10016 10011 10006 10002 9998 9994 9990 9986 9982 9978 9974 9970 9966 9961 9956 9950 9944 9938 9932 9925 9916 9907 9898 9889 9881 9872 9863 9855 9848